Weather History for KHRI - March, 2013

Change the Weather History Date:

Sunday, March 31, 2013

  Actual Average Record
Temperature  
Mean Temperature 52 °F -  
Max Temperature 73 °F 61 °F 77 °F (1964)
Min Temperature 30 °F 36 °F 24 °F (1930)
Degree Days  
Heating Degree Days 14    
Growing Degree Days 2 (Base 50)    
Moisture  
Dew Point 38 °F    
Average Humidity 64    
Maximum Humidity 96    
Minimum Humidity 30    
Precipitation  
Precipitation 0.00 in - - ()
Sea Level Pressure  
Sea Level Pressure 29.99 in    
Wind  
Wind Speed 3 mph (ESE)    
Max Wind Speed 10 mph    
Max Gust Speed -    
Visibility 10 miles    
Events      
Averages and records for this station are not official NWS values.
T = Trace of Precipitation, MM = Missing Value Source: NWS Daily Summary

Daily Weather History Graph

Daily Weather History Graph

Search for Another Location

Airport or City:

Trip Planner

Search our weather history database for the weather conditions in past years. The results will help you decide how hot, cold, wet, or windy it might be!

Date:

Astronomy

Mar. 31, 2013 Rise Set
Actual Time 6:38 AM PDT 7:24 PM PDT
Civil Twilight 6:08 AM PDT 7:54 PM PDT
Nautical Twilight 5:32 AM PDT 8:30 PM PDT
Astronomical Twilight 4:55 AM PDT 9:08 PM PDT
Moon No Moon Rise 9:17 AM PDT (3/31)
Length of Visible Light 13h 46m
Length of Day
12h 46m
Waning Gibbous, 76% of the Moon is Illuminated
Mar 31
Waning Gibbous
Apr 2
Last Quarter
Apr 10
New
Apr 18
First Quarter
Apr 25
Full

Hourly Weather History & Observations

Time (PDT) Temp. Windchill Dew Point Humidity Pressure Visibility Wind Dir Wind Speed Gust Speed Precip Events Conditions
12:53 AM 39.9 °F 36.7 °F 35.1 °F 83% 30.06 in 10.0 mi ESE 4.6 mph - N/A   Clear
1:53 AM 41.0 °F - 37.0 °F 86% 30.06 in 10.0 mi Calm Calm - N/A   Clear
2:53 AM 37.0 °F 34.5 °F 35.1 °F 93% 30.05 in 10.0 mi SE 3.5 mph - N/A   Clear
3:53 AM 37.0 °F 33.3 °F 35.1 °F 93% 30.04 in 10.0 mi SSE 4.6 mph - N/A   Clear
4:53 AM 35.1 °F 32.2 °F 34.0 °F 96% 30.04 in 10.0 mi South 3.5 mph - N/A   Clear
5:53 AM 34.0 °F 31.0 °F 30.9 °F 89% 30.05 in 8.0 mi SE 3.5 mph - N/A   Clear
6:53 AM 30.9 °F - 28.9 °F 92% 30.06 in 4.0 mi Calm Calm - N/A   Clear
7:53 AM 42.1 °F 40.2 °F 37.9 °F 85% 30.06 in 10.0 mi South 3.5 mph - N/A   Clear
8:53 AM 48.0 °F - 39.0 °F 71% 30.06 in 10.0 mi Calm Calm - N/A   Clear
9:53 AM 54.0 °F - 39.9 °F 59% 30.06 in 10.0 mi Calm Calm - N/A   Clear
10:53 AM 60.1 °F - 39.0 °F 46% 30.05 in 10.0 mi North 3.5 mph - N/A   Clear
11:53 AM 62.1 °F - 39.9 °F 44% 30.04 in 10.0 mi Calm Calm - N/A   Clear
12:53 PM 66.0 °F - 41.0 °F 40% 30.01 in 10.0 mi ENE 4.6 mph - N/A   Clear
1:53 PM 68.0 °F - 42.1 °F 39% 29.98 in 10.0 mi Variable 5.8 mph - N/A   Clear
2:53 PM 71.1 °F - 41.0 °F 34% 29.95 in 10.0 mi NE 9.2 mph - N/A   Clear
3:53 PM 73.0 °F - 42.1 °F 33% 29.93 in 10.0 mi ENE 10.4 mph - N/A   Clear
4:53 PM 73.0 °F - 39.9 °F 30% 29.91 in 10.0 mi NE 4.6 mph - N/A   Clear
5:53 PM 73.0 °F - 41.0 °F 31% 29.89 in 10.0 mi ENE 3.5 mph - N/A   Clear
6:53 PM 69.1 °F - 43.0 °F 39% 29.88 in 10.0 mi Calm Calm - N/A   Clear
7:53 PM 57.9 °F - 39.9 °F 51% 29.88 in 10.0 mi Calm Calm - N/A   Clear
8:53 PM 54.0 °F - 41.0 °F 62% 29.89 in 10.0 mi SW 3.5 mph - N/A   Clear
9:53 PM 48.0 °F - 39.9 °F 74% 29.90 in 10.0 mi South 3.5 mph - N/A   Clear
10:53 PM 45.0 °F 43.5 °F 39.0 °F 80% 29.90 in 10.0 mi South 3.5 mph - N/A   Clear
11:53 PM 43.0 °F - 37.9 °F 82% 29.91 in 10.0 mi Calm Calm - N/A   Clear